Vorticity
5 6 6 5 5 6 5 7 5 6 9 10 9 7 6 3 17 -9 8 4 8 7 7 8 10 10 10 11 2 16 6 3 -1 9 4 18 6 -1 13 13 6 39 0 -8 12
4 6 6 8 7 3 5 5 6 7 10 14 10 8 4 3 20 -9 7 4 6 7 11 9 11 11 10 7 18 14 11 7 11 8 5 13 6 -3 5 6 6 38 10 -12 6
3 5 7 6 6 4 6 5 5 5 9 13 11 9 3 4 20 -1 8 5 7 11 13 12 13 10 10 4 21 -4 2 15 18 25 14 6 7 5 7 18 14 14 13 23 -22
3 4 6 7 7 4 4 4 6 8 11 11 12 9 1 7 11 8 5 7 7 14 12 16 12 11 11 -1 11 10 6 2 12 19 15 10 4 7 3 11 19 14 56 -5 23
4 4 6 7 6 4 3 6 7 9 14 10 11 8 -2 9 5 6 6 8 11 13 19 17 13 9 5 9 -4 1 9 14 20 16 27 24 16 11 19 0 3 8 14 49 -38
3 4 5 8 6 3 4 7 10 12 12 15 10 11 -5 11 9 4 7 8 14 21 12 13 10 2 -1 12 -14 16 18 9 2 31 29 17 20 14 18 11 18 -15 2 53 -3
3 4 5 8 5 4 6 7 7 17 11 13 5 15 -6 6 8 4 6 8 13 16 24 14 16 -1 -4 22 6 6 17 21 7 -7 -0 19 31 36 30 23 8 14 -6 9 53
4 4 5 7 6 5 5 5 6 16 18 14 -1 15 -5 9 6 1 8 11 15 18 23 2 7 3 14 5 12 3 -8 23 2 4 -7 25 17 20 2 15 26 12 11 7 45
5 4 6 7 8 5 4 4 7 15 19 19 -4 18 -9 10 1 7 9 11 21 14 18 13 5 -3 18 2 17 6 3 10 14 3 6 26 8 -9 16 9 21 8 9 2 31
6 5 6 7 9 5 3 7 10 18 23 12 -14 22 1 9 1 12 10 16 17 16 19 11 6 -9 8 16 6 -2 4 7 2 7 12 2 0 33 11 15 35 16 6 7 7
6 5 5 7 9 5 3 8 12 14 20 -9 4 2 3 14 -2 11 11 18 18 19 22 7 -8 10 16 -0 0 1 17 6 24 3 16 -0 1 17 10 42 18 7 7 6 11
6 5 6 8 8 3 6 8 13 14 18 -11 6 4 -1 11 -10 8 10 24 18 18 19 16 -9 11 16 25 11 24 -4 7 33 14 20 11 31 2 36 -1 17 31 9 -5 7
6 5 5 7 8 4 7 10 14 23 -4 -10 -3 -1 0 18 -10 8 10 18 11 15 13 4 -1 6 15 14 11 16 1 -1 14 3 9 12 -23 4 17 25 16 10 11 9 10
6 6 5 8 8 3 7 12 17 28 1 -4 -4 -7 -4 20 -14 10 8 19 13 14 20 2 6 5 7 18 5 17 4 22 23 10 5 17 8 -5 12 8 6 20 14 19 14
6 6 5 8 7 3 9 13 20 23 -2 18 -5 2 1 11 2 6 3 23 18 16 14 2 -12 11 -6 27 -9 6 36 31 17 7 16 9 2 -36 14 -1 6 10 30 9 15
5 6 4 9 6 6 11 15 18 16 -6 11 5 6 2 9 -1 5 6 36 -2 -12 11 9 -2 25 -14 39 -6 15 40 5 7 11 13 26 11 -68 11 17 19 12 24 20 17
6 6 5 11 7 8 12 16 10 15 3 -3 -0 9 5 8 -3 6 7 10 22 47 -3 38 -20 34 -4 44 -0 1 47 -5 1 5 9 -8 -14 -12 7 19 16 23 17 25 24
6 6 6 9 6 8 13 18 14 2 5 4 12 7 7 9 -5 10 11 6 6 14 11 -2 -1 18 16 -11 38 -0 25 23 12 7 -3 12 -3 -20 -2 14 19 20 26 16 38
6 5 6 9 7 9 12 12 7 9 6 7 17 11 7 2 19 15 24 5 -2 7 40 1 5 -1 7 -11 36 16 16 16 19 18 15 14 -3 4 10 13 17 16 28 33 11
7 5 12 11 9 14 13 10 10 9 8 8 13 6 8 7 16 15 14 -13 5 8 10 4 4 -8 14 7 -6 10 33 12 5 6 11 1 -15 -31 13 9 19 11 18 31 34
6 6 14 6 5 9 13 12 9 9 10 11 5 10 6 8 18 10 2 4 8 8 10 22 6 9 19 -7 -4 21 4 50 19 17 13 9 3 -23 14 11 14 12 14 33 29
6 7 5 11 10 2 10 12 11 8 9 8 8 10 6 8 20 10 6 7 8 3 7 12 -7 16 12 9 -5 -7 1 18 19 -12 11 14 9 -8 10 12 11 15 14 22 39
5 7 15 5 12 10 9 10 8 9 6 7 5 8 8 10 24 6 9 9 10 2 7 17 -9 14 8 5 -16 0 -2 14 43 20 -1 21 -7 4 18 13 10 13 19 26 17
6 7 2 4 -1 12 10 11 8 8 5 6 5 10 8 11 16 3 9 5 15 3 7 19 4 8 -0 4 8 -3 0 13 22 8 5 -7 -0 -2 11 13 6 10 17 20 33
4 7 8 -9 7 10 11 12 9 8 8 4 4 8 9 10 17 3 8 7 17 4 11 11 3 11 16 8 8 11 5 19 19 12 9 4 17 -3 7 12 8 9 18 24 25
6 6 10 4 8 10 9 10 9 9 9 7 9 7 9 9 9 10 11 10 5 7 10 9 4 20 2 8 -8 13 -12 9 26 2 4 11 24 7 9 13 7 10 9 24 26
7 8 8 6 12 9 9 9 9 8 8 7 6 8 8 7 8 8 13 11 10 10 12 6 10 20 11 -6 35 12 -12 7 12 19 8 2 6 8 8 13 5 8 9 14 23
Height
3153 3150 3146 3143 3140 3136 3132 3128 3123 3119 3114 3110 3106 3103 3099 3096 3091 3088 3084 3078 3071 3066 3062 3060 3056 3053 3049 3046 3042 3039 3037 3032 3028 3028 3024 3023 3021 3021 3021 3020 3023 3024 3027 3029 3032
3152 3149 3145 3142 3139 3135 3131 3126 3121 3118 3113 3109 3105 3101 3098 3093 3089 3085 3080 3075 3070 3065 3060 3055 3051 3049 3046 3043 3040 3035 3032 3028 3026 3023 3020 3017 3018 3016 3016 3019 3018 3016 3020 3021 3027
3151 3148 3145 3141 3137 3133 3129 3125 3121 3117 3112 3107 3104 3101 3097 3092 3087 3082 3078 3074 3069 3063 3058 3053 3049 3045 3043 3040 3035 3032 3026 3023 3020 3018 3016 3013 3013 3014 3012 3014 3019 3010 3008 3015 3020
3151 3146 3143 3139 3136 3132 3128 3124 3119 3115 3110 3106 3103 3100 3097 3093 3092 3083 3078 3071 3064 3058 3053 3050 3048 3045 3039 3036 3034 3030 3027 3021 3017 3014 3010 3008 3009 3008 3009 3010 3011 3014 3007 3014 3014
3149 3146 3142 3138 3135 3131 3127 3122 3118 3113 3108 3104 3101 3098 3095 3092 3088 3080 3073 3067 3062 3057 3051 3047 3045 3042 3039 3035 3032 3028 3024 3018 3014 3009 3004 3004 3003 3004 3005 3009 3011 3010 3004 3007 3013
3148 3145 3141 3137 3134 3130 3125 3120 3116 3112 3107 3102 3099 3096 3092 3088 3082 3078 3070 3063 3060 3053 3046 3043 3040 3039 3036 3033 3028 3024 3021 3016 3011 3005 3002 3000 3001 3000 3001 3004 3006 3006 3004 2997 3000
3146 3143 3140 3136 3132 3129 3123 3119 3114 3110 3105 3101 3099 3095 3092 3088 3078 3072 3068 3062 3055 3050 3044 3041 3039 3037 3035 3030 3026 3021 3016 3014 3010 3007 3004 3000 3000 2999 2998 2999 3001 3007 3008 3012 3015
3145 3141 3138 3134 3131 3127 3122 3117 3112 3108 3103 3100 3098 3093 3090 3084 3077 3073 3071 3062 3053 3047 3044 3042 3039 3038 3034 3030 3024 3019 3016 3012 3009 3005 3005 3002 3001 3000 3000 2998 3000 2997 3000 2996 3003
3143 3140 3136 3133 3128 3125 3120 3116 3111 3107 3102 3099 3097 3092 3089 3086 3085 3076 3063 3058 3051 3047 3044 3042 3039 3037 3033 3028 3024 3018 3014 3013 3008 3006 3005 3003 3002 3001 3000 3001 3003 3005 3002 3002 2997
3140 3137 3135 3131 3127 3123 3119 3114 3109 3105 3102 3099 3096 3093 3088 3084 3077 3071 3067 3058 3050 3045 3043 3040 3038 3036 3033 3027 3023 3018 3012 3012 3010 3005 3004 3005 3004 3000 2999 2996 2993 2992 2998 3000 3007
3139 3136 3132 3128 3125 3121 3117 3112 3110 3105 3102 3098 3097 3092 3088 3084 3077 3071 3063 3057 3050 3046 3042 3040 3040 3033 3032 3029 3026 3022 3015 3011 3008 3006 3004 3004 3003 2997 2997 2996 2992 2994 2999 3000 2999
3135 3133 3130 3126 3123 3118 3114 3109 3106 3104 3100 3098 3093 3089 3084 3078 3076 3069 3063 3056 3048 3043 3043 3042 3039 3035 3033 3027 3024 3019 3014 3010 3006 3005 3005 3003 3000 2997 2993 2993 2995 2997 2997 2996 2999
3133 3130 3127 3124 3120 3117 3112 3107 3102 3098 3097 3096 3092 3088 3083 3078 3072 3067 3061 3053 3048 3044 3041 3040 3040 3036 3031 3026 3020 3019 3015 3010 3010 3004 3003 3003 3000 2998 2995 2994 2991 2990 2991 2996 3000
3130 3128 3124 3121 3120 3114 3109 3104 3099 3096 3095 3097 3091 3086 3086 3079 3076 3068 3063 3057 3051 3048 3045 3043 3040 3036 3033 3028 3022 3017 3013 3008 3005 3005 3004 3002 3002 2998 2997 2995 2993 2994 2991 2990 2991
3127 3125 3122 3117 3115 3111 3108 3102 3097 3096 3097 3097 3092 3088 3081 3082 3078 3073 3064 3058 3052 3049 3048 3046 3040 3035 3032 3028 3024 3019 3010 3006 3003 3003 3003 3003 3004 3009 2999 2994 2993 2987 2985 2986 2990
3124 3122 3119 3116 3113 3109 3105 3101 3099 3098 3095 3095 3092 3088 3087 3080 3076 3073 3067 3061 3054 3051 3048 3047 3047 3040 3036 3029 3026 3020 3010 3008 3005 3003 3003 3005 3006 3012 3006 3005 3000 2998 2996 2993 2997
3121 3119 3116 3113 3111 3107 3103 3101 3101 3096 3099 3095 3090 3086 3082 3079 3076 3069 3064 3056 3052 3049 3047 3048 3045 3041 3036 3026 3025 3019 3011 3010 3012 3012 3010 3009 3009 3020 3018 3011 3003 2997 2994 2993 2994
3117 3115 3112 3110 3108 3105 3102 3100 3098 3097 3095 3092 3088 3085 3082 3078 3076 3073 3068 3063 3061 3057 3053 3048 3044 3042 3041 3038 3033 3027 3023 3024 3028 3021 3016 3013 3018 3019 3017 3013 3008 3000 2995 2995 2995
3114 3112 3109 3107 3105 3103 3101 3098 3098 3097 3095 3092 3088 3085 3084 3081 3078 3076 3072 3067 3064 3060 3059 3052 3051 3049 3046 3041 3037 3031 3028 3028 3025 3021 3018 3022 3022 3021 3016 3010 3004 2999 2993 2991 2992
3111 3109 3106 3104 3102 3100 3100 3097 3097 3096 3094 3091 3088 3085 3082 3080 3079 3076 3072 3071 3068 3065 3062 3061 3053 3050 3048 3046 3042 3038 3034 3031 3029 3032 3029 3025 3024 3027 3013 3006 3003 2995 2991 2990 2990
3108 3105 3103 3101 3100 3098 3096 3095 3095 3095 3092 3091 3088 3085 3084 3081 3079 3078 3076 3073 3071 3068 3063 3060 3058 3054 3049 3047 3045 3040 3035 3035 3033 3034 3035 3030 3032 3029 3024 3015 3007 3002 2995 2990 2988
3104 3103 3100 3098 3099 3095 3094 3094 3094 3093 3090 3088 3086 3085 3083 3080 3079 3078 3076 3073 3071 3068 3066 3063 3059 3053 3053 3050 3049 3049 3045 3042 3039 3038 3035 3032 3034 3030 3027 3020 3014 3007 2998 2995 2993
3099 3098 3097 3096 3095 3093 3093 3092 3092 3091 3088 3085 3085 3084 3083 3080 3080 3077 3074 3073 3071 3070 3066 3065 3062 3057 3053 3054 3052 3048 3047 3046 3040 3038 3037 3036 3036 3031 3027 3022 3017 3009 3002 2999 2997
3096 3095 3094 3092 3091 3089 3090 3090 3090 3089 3087 3085 3085 3083 3082 3081 3080 3076 3074 3073 3072 3070 3067 3065 3064 3062 3062 3059 3056 3051 3049 3046 3043 3041 3039 3037 3033 3028 3024 3019 3017 3011 3004 3001 2998
3090 3089 3090 3088 3087 3087 3087 3087 3087 3088 3087 3084 3083 3082 3082 3081 3078 3076 3075 3072 3070 3068 3066 3064 3063 3060 3056 3055 3054 3053 3050 3047 3044 3043 3042 3038 3033 3029 3024 3019 3015 3011 3007 3002 3000
3084 3085 3084 3086 3084 3085 3084 3083 3085 3084 3085 3084 3083 3081 3081 3081 3078 3074 3072 3071 3069 3067 3065 3062 3064 3061 3059 3054 3054 3052 3051 3048 3044 3043 3041 3038 3033 3029 3024 3021 3018 3011 3005 3005 3000
3078 3079 3080 3081 3081 3082 3082 3079 3081 3079 3082 3081 3080 3079 3079 3078 3075 3072 3071 3070 3068 3066 3066 3062 3059 3058 3057 3055 3051 3052 3050 3047 3045 3042 3041 3036 3035 3030 3026 3022 3017 3014 3010 3007 3003